MDT,Max TemperatureF,Mean TemperatureF,Min TemperatureF,Max Dew PointF,MeanDew PointF,Min DewpointF,Max Humidity, Mean Humidity, Min Humidity, Max Sea Level PressureIn, Mean Sea Level PressureIn, Min Sea Level PressureIn, Max VisibilityMiles, Mean VisibilityMiles, Min VisibilityMiles, Max Wind SpeedMPH, Mean Wind SpeedMPH, Max Gust SpeedMPH,PrecipitationIn, CloudCover, Events, WindDirDegrees
2012-10-1,72,54,36,38,31,28,83,53,19,30.30,30.15,30.02,10,10,10,10,4,,0.00,0,,106
2012-10-2,72,58,43,29,27,23,56,33,15,29.99,29.88,29.73,10,10,10,18,10,,0.00,0,,177
2012-10-3,57,42,26,23,17,9,66,34,20,30.23,29.98,29.72,10,10,10,20,14,,0.00,0,,257
2012-10-4,52,36,19,18,14,11,71,46,21,30.25,30.15,30.08,10,10,10,13,2,,0.00,1,,359
2012-10-5,46,32,18,18,12,3,81,47,16,30.26,30.19,30.09,10,10,10,16,5,,0.00,0,,256
2012-10-6,50,32,14,11,0,-20,67,35,5,30.33,30.25,30.17,10,10,10,10,4,,0.00,0,,97
2012-10-7,52,35,18,18,11,-1,62,40,23,30.27,30.17,30.07,10,10,10,9,3,,0.00,0,,45
2012-10-8,61,42,22,15,11,6,60,35,12,30.09,29.98,29.87,10,10,10,14,4,,0.00,0,,162
2012-10-9,59,43,27,21,16,9,57,38,23,30.15,30.00,29.87,10,10,10,10,5,,0.00,0,,107
2012-10-10,68,48,28,22,18,12,69,37,12,30.15,29.96,29.82,10,10,10,16,4,,0.00,1,,187
2012-10-11,70,54,39,30,25,21,51,34,18,29.94,29.87,29.81,10,10,10,12,6,,0.00,3,,131
2012-10-12,70,53,36,33,30,23,63,41,25,29.87,29.79,29.69,10,10,10,12,5,,0.00,3,Rain,219
2012-10-13,54,48,41,40,37,33,85,66,50,30.17,29.99,29.75,10,10,10,14,8,,0.00,5,,162
2012-10-14,61,46,30,38,33,28,96,64,34,30.32,30.20,30.08,10,10,10,12,7,,0.00,1,,154
2012-10-15,59,51,43,39,35,31,66,55,42,30.05,29.95,29.88,10,10,10,21,10,30,0.00,4,Rain,193
2012-10-16,54,44,32,46,39,17,100,76,52,29.89,29.74,29.53,10,8,2,29,13,,0.16,5,Rain-Thunderstorm,210
2012-10-17,43,36,28,23,18,14,75,53,31,30.22,30.09,29.90,10,10,10,15,8,,0.00,1,,195
2012-10-18,54,37,20,25,19,12,85,58,24,30.38,30.29,30.21,10,10,10,7,4,,0.00,0,,79
2012-10-19,55,42,28,33,26,20,79,52,26,30.18,29.99,29.73,10,10,10,16,6,,0.00,3,,172
2012-10-20,54,50,45,45,32,23,87,51,31,29.81,29.65,29.60,10,9,2,24,12,,0.01,6,Rain,200
2012-10-21,50,44,36,30,28,24,73,53,36,29.77,29.72,29.67,10,10,10,13,8,,0.00,7,,167
2012-10-22,41,38,35,39,35,28,100,88,65,29.74,29.67,29.52,10,7,1,23,7,,0.40,7,Rain-Thunderstorm,143
2012-10-23,37,32,25,30,27,20,100,81,62,29.94,29.84,29.67,10,7,0,20,13,29,0.00,6,Fog-Snow,180
2012-10-24,36,28,21,26,21,15,92,75,41,30.11,30.01,29.94,10,10,10,15,4,,0.01,3,Snow,120
2012-10-25,32,27,22,25,24,19,100,89,67,30.37,30.17,30.04,10,3,0,10,5,,0.01,8,Fog-Snow,117
2012-10-26,31,16,0,25,17,-6,96,88,64,30.53,30.33,30.16,10,5,0,12,5,,0.00,6,Fog-Snow,143
2012-10-27,36,32,28,31,27,23,96,79,70,30.15,30.13,30.10,10,9,2,18,10,,0.07,8,Snow,163
2012-10-28,46,40,34,43,37,30,93,84,75,30.15,30.09,30.04,10,10,7,16,12,,0.24,8,Rain,164
2012-10-29,59,51,43,40,37,31,80,65,44,30.10,30.05,30.00,10,10,10,15,10,,0.00,5,,176
2012-10-30,57,47,37,36,33,29,76,60,41,30.14,30.09,30.04,10,10,10,14,9,,0.00,2,,160
2012-10-31,63,48,34,36,31,29,82,56,28,30.14,30.03,29.92,10,10,10,14,8,,0.00,0,Rain,147